Regional Weather Roundup
Issued by NWS

Home | Current Version | Previous Version | Text Only | Print | Product List | Glossary Off
Versions: 1 2 3 4 5 6 7 8 9 10 11 12 13 14 15 16 17 18 19 20 21 22 23 24 25 26 27 28 29 30 31 32 33 34 35 36 37 38 39 40 41 42 43 44 45 46 47 48 49 50

877
ASUS43 KDMX 250406
RWRIA

WEATHER ROUNDUP FOR IOWA
NATIONAL WEATHER SERVICE DES MOINES IA
1100 PM CDT THU MAY 24 2018

NOTE: "FAIR" INDICATES FEW OR NO CLOUDS BELOW 12,000 FEET WITH NO
SIGNIFICANT WEATHER AND/OR OBSTRUCTIONS TO VISIBILITY.

* - THESE STATIONS ARE NOT NWS STATIONS...THUS NOT UNDER NWS
QUALITY CONTROL.  THEY ALSO DO NOT REPORT WEATHER SUCH
AS PRECIPITATION OR FOG.

IAZ001>003-012>014-020>022-031>034-043>046-250500-
   NORTHWEST IOWA

CITY           SKY/WX    TMP DP  RH WIND       PRES   REMARKS
CARROLL *      MOCLDY    73  64  73 S8        29.94S
CHEROKEE *     MOCLDY    75  62  62 S8        29.90R
DENISON *      PTCLDY    77  64  65 S12       29.94R
LE MARS *      CLOUDY    75  63  64 MISG      29.88R
ORANGE CITY *  CLOUDY    77  61  57 SE3       29.90S
SHELDON *      PTCLDY    72  63  73 SE10      29.88S
SIOUX CITY     CLOUDY    77  62  59 S10       29.88R
SPENCER        PTCLDY    74  63  68 S9        29.91R
STORM LAKE *   PTCLDY    75  64  69 S15       29.92S
$$

IAZ055>058-069>071-079>083-090>094-250500-
   SOUTHWEST IOWA

CITY           SKY/WX    TMP DP  RH WIND       PRES   REMARKS
ATLANTIC *     CLOUDY    75  64  69 S15       29.95S
AUDUBON *      CLOUDY    73  66  78 S9        29.97R
CLARINDA *       N/A     73  64  73 S8        29.98S
COUNCIL BLFS * MOCLDY    73  70  88 S9        29.94R
CRESTON *      MOCLDY    72  64  78 S9        30.00R
HARLAN  *      MOCLDY    75  64  69 S10G16    29.98R
LAMONI         CLOUDY    73  65  75 S7        29.99R
RED OAK *      PTCLDY    75  63  64 S10       29.96R
SHENANDOAH *   CLOUDY    73  63  68 S13       29.96R
$$

IAZ047>049-059>061-072>074-084-250500-
   CENTRAL IOWA

CITY           SKY/WX    TMP DP  RH WIND       PRES   REMARKS
AMES           CLOUDY    74  64  71 S7        29.96R
ANKENY *       PTCLDY    75  64  69 S3        29.97S
BOONE *        CLOUDY    77  64  65 S6        29.96R
CHARITON *     MOCLDY    73  66  78 S7        29.99R
DES MOINES     PTCLDY    75  65  70 SE7       29.96R
GRINNELL*      CLOUDY    73  64  71 S6        30.00S
KNOXVILLE *    CLOUDY    75  64  69 S7        29.97R
MARSHALLTOWN   PTCLDY    73  65  75 S8        29.96S
NEWTON *       CLOUDY    73  64  73 S6        29.98S
PELLA *        MOCLDY    73  64  72 S6        29.99R
PERRY *        FAIR      75  60  58 SE7       29.96S
$$

IAZ004>006-015-016-023>025-035-036-250500-
   NORTH CENTRAL IOWA

CITY           SKY/WX    TMP DP  RH WIND       PRES   REMARKS
ALGONA *       CLOUDY    68  63  83 SE7       29.94F
CLARION *      MOCLDY    73  63  68 NE6G17    29.97R
ESTHERVILLE    MOCLDY    71  64  78 S8        29.91R
FORT DODGE *   MOCLDY    78  63  59 S9        29.95S HX  80
MASON CITY     MOCLDY    72  59  63 W12       29.99R
FOREST CITY *  DRIZZLE   68  63  83 CALM      29.96F
WEBSTER CITY * CLOUDY    75  63  64 S10       29.94S
IOWA FALLS *   FAIR      73  64  73 S6        29.99R
$$

IAZ007>011-017>019-026>030-037>042-050>054-066-250500-
   NORTHEAST IOWA

CITY           SKY/WX    TMP DP  RH WIND       PRES   REMARKS
CEDAR RAPIDS   FAIR      73  61  65 S6        29.98S
CHARLES CITY * FAIR      73  61  64 S8        29.97F
CLINTON *      FAIR      74  61  63 S6        30.01S
DECORAH *      FAIR      75  64  69 S7        29.97S
DUBUQUE        FAIR      70  59  68 SW7       30.00S
MONTICELLO *   FAIR      75  61  60 S6        29.99S
OELWEIN *      FAIR      72  64  78 S8        29.99S
WATERLOO       FAIR      73  64  73 S6        29.96R
$$

IAZ064-065-067-068-078-250500-
   EAST CENTRAL IOWA

CITY           SKY/WX    TMP DP  RH WIND       PRES   REMARKS
DAVENPORT      FAIR      72  59  63 S7        30.02S
IOWA CITY      FAIR      72  61  68 CALM      30.00S
MT. PLEASANT * CLEAR     73  55  53 S8        30.00S
MUSCATINE *    FAIR      72  61  68 S7        30.00R
QUAD CITIES    FAIR      73  60  63 S3        29.99S
$$

IAZ062-063-075>077-085>089-095>099-250500-
   SOUTHEAST IOWA

CITY           SKY/WX    TMP DP  RH WIND       PRES   REMARKS
BURLINGTON     CLEAR     73  60  63 S5        30.00S
FAIRFIELD *    PTCLDY    75  61  60 S7        29.99S
FORT MADISON * CLEAR     75  59  57 S6        30.01F
KEOKUK *       CLEAR     77  61  57 S6        30.00S
OSKALOOSA *    FAIR      74  65  73 S8        29.99S
CENTERVILLE *  FAIR      75  68  78 CALM      30.01S
OTTUMWA        PTCLDY    75  64  68 S8        29.98S
WASHINGTON *   CLEAR     75  61  60 S8        30.00S
$$

ABBREVIATIONS USED IN REMARKS
   TC - TEMPERATURES IN CELSIUS
  WCI - WIND CHILL INDEX
   HX - HEAT INDEX
  VSB - VISIBILITY
$$





USA.gov is the U.S. government's official web portal to all federal, state and local government web resources and services.